Location: Leuk
(46.3174°N, 7.6341°E)
Time: 18:35:02
(UTC+00:00)

CZ-4C R/B - Pass Details

Date: 09 March 2021
Orbit: 407 x 487 km, 97.7° (Epoch: 14 April)

Event Time Altitude Azimuth Distance (km) Brightness Sun altitude
Exits shadow 03:30:46 41° 65° (ENE) 672 4.2 -25.1°
Drops below altitude 10° 03:33:58 10° 0° (N) 1,625 5.9 -24.6°
Sets 03:36:06 0° 354° (N) 2,520 6.9 -24.2°
